Flag for U.S.A. Weather past 2 weeks in St. Louis, Missouri, U.S.A.

Now
72 °F

Sunny.


Feels Like: 72 °F
Forecast: 66 / 83 °F
Wind: No wind

Location: Lambert-St. Louis International Airport

Current Time: Jul 4, 2015 at 8:46:17 AM

Latest Report: Jul 4, 2015 at 8:03 AM


Visibility: 5 mi

Pressure: 30.02 "Hg

Humidity: 78%

Dew point: 64 °F

Location of St. LouisLocation

Historic Weather in St. Louis — Graph

°F

St. Louis temperature yesterday

Maximum temperature yesterday: 83 °F (at 3:51 PM)
Minimum temperature yesterday: 67 °F (at 5:51 AM)
Average temperature yesterday: 75 °F

Past Weeks' High & Low Weather Summary

 TemperatureHumidityPressure
High95 °F (Jun 25, 2:51 PM)91% (Jun 19, 1:51 PM)30.19 "Hg (Jun 19, 1:51 PM)
Low66 °F (Jun 28, 5:51 AM)43% (Jun 24, 4:51 PM)29.73 "Hg (Jun 29, 3:51 AM)
Average77 °F71%29.91 "Hg
* Reported Jun 19 8:51 AM — Jul 4 8:03 AM, St. Louis, Weather by CustomWeather, © 2015

Note: Actual official high and low records may vary slightly from our data, if they occured in-between our weather recording intervals... More about our weather records

Advertising

St. Louis weather history for previous 24 hours

 ConditionsComfort  
Time TempWeatherWind HumidityBarometerVisibility
8:03 AM
Sat, Jul 4
72 °FSunny.No wind78%30.02 "Hg5 mi
6:51 AM69 °FFog.No wind87%29.96 "Hg2 mi
5:47 AM70 °FClear.No wind83%29.97 "Hg3 mi
4:51 AM70 °FClear.No wind84%29.92 "Hg4 mi
3:51 AM70 °FClear.No wind84%29.91 "Hg4 mi
2:51 AM70 °FClear.No wind84%29.92 "Hg5 mi
1:51 AM72 °FClear.5 mph81%29.92 "Hg5 mi
12:51 AM73 °FClear.No wind76%29.93 "Hg5 mi
11:51 PM
Fri, Jul 3
74 °FClear.5 mph74%29.92 "Hg7 mi
10:51 PM75 °FHaze.3 mph74%29.91 "Hg6 mi
9:51 PM76 °FPassing clouds.3 mph72%29.89 "Hg8 mi
8:51 PM77 °FScattered clouds.6 mph66%29.88 "Hg8 mi
7:51 PM79 °FScattered clouds.7 mph60%29.87 "Hg9 mi
6:51 PM80 °FScattered clouds.10 mph60%29.86 "Hg8 mi
5:51 PM81 °FScattered clouds.12 mph60%29.85 "Hg8 mi
4:51 PM82 °FScattered clouds.10 mph53%29.86 "Hg8 mi
3:51 PM83 °FScattered clouds.6 mph55%29.87 "Hg9 mi
2:51 PM81 °FBroken clouds.10 mph60%29.88 "Hg9 mi
1:51 PM81 °FBroken clouds.12 mph60%29.89 "Hg9 mi
12:51 PM80 °FPartly sunny.8 mph62%29.90 "Hg10 mi
11:51 AM78 °FScattered clouds.9 mph64%29.90 "Hg9 mi
10:51 AM76 °FScattered clouds.8 mph69%29.90 "Hg10 mi
9:51 AM74 °FScattered clouds.8 mph71%29.90 "Hg10 mi
8:51 AM72 °FScattered clouds.6 mph73%29.88 "Hg9 mi
Weather by CustomWeather, © 2015

See weather overviewHow to use our weather pages